owner,sensor,date,latitude,longitude,vertical_datum,wind_speed,wind_to_direction,wind_speed_of_gust,qcFlag 
TCOON,ioos:station:TCOON:003:1,2014-09-01T00:00:00Z,26.8015,-97.4706,0.0,7.2,113.0,8.7,'11111222,11111222,11111222' 
TCOON,ioos:station:TCOON:003:1,2014-09-01T00:06:00Z,26.8015,-97.4706,0.0,7.5,112.0,9.2,'11111222,11111222,11111222' 
TCOON,ioos:station:TCOON:003:1,2014-09-01T00:12:00Z,26.8015,-97.4706,0.0,7.2,110.0,8.9,'11111222,11111222,11111222' 
TCOON,ioos:station:TCOON:003:1,2014-09-01T00:18:00Z,26.8015,-97.4706,0.0,7.3,118.0,8.8,'11111222,11111222,11111222' 
TCOON,ioos:station:TCOON:003:1,2014-09-01T00:24:00Z,26.8015,-97.4706,0.0,7.7,113.0,9.2,'11111222,11111222,11111222' 
TCOON,ioos:station:TCOON:003:1,2014-09-01T00:30:00Z,26.8015,-97.4706,0.0,7.5,117.0,8.8,'11111222,11111222,11111222' 
TCOON,ioos:station:TCOON:003:1,2014-09-01T00:36:00Z,26.8015,-97.4706,0.0,7.9,118.0,9.0,'11111222,11111222,11111222' 
TCOON,ioos:station:TCOON:003:1,2014-09-01T00:42:00Z,26.8015,-97.4706,0.0,7.0,117.0,8.3,'11111222,11111222,11111222' 
TCOON,ioos:station:TCOON:003:1,2014-09-01T00:48:00Z,26.8015,-97.4706,0.0,6.4,118.0,7.6,'11111222,11111222,11111222' 
TCOON,ioos:station:TCOON:003:1,2014-09-01T00:54:00Z,26.8015,-97.4706,0.0,5.9,112.0,7.2,'11111222,11111222,11111222' 
TCOON,ioos:station:TCOON:003:1,2014-09-01T01:00:00Z,26.8015,-97.4706,0.0,5.9,110.0,6.9,'11111222,11111222,11111222' 
TCOON,ioos:station:TCOON:003:1,2014-09-01T01:06:00Z,26.8015,-97.4706,0.0,5.7,110.0,7.0,'11111222,11111222,11111222' 
TCOON,ioos:station:TCOON:003:1,2014-09-01T01:12:00Z,26.8015,-97.4706,0.0,4.6,110.0,6.1,'11111222,11111222,11111222' 
TCOON,ioos:station:TCOON:003:1,2014-09-01T01:18:00Z,26.8015,-97.4706,0.0,4.8,110.0,5.8,'11111222,11111222,11111222' 
TCOON,ioos:station:TCOON:003:1,2014-09-01T01:24:00Z,26.8015,-97.4706,0.0,5.2,111.0,6.1,'11111222,11111222,11111222' 
TCOON,ioos:station:TCOON:003:1,2014-09-01T01:30:00Z,26.8015,-97.4706,0.0,5.2,113.0,6.4,'11111222,11111222,11111222' 
TCOON,ioos:station:TCOON:003:1,2014-09-01T01:36:00Z,26.8015,-97.4706,0.0,5.6,113.0,6.5,'11111222,11111222,11111222' 
TCOON,ioos:station:TCOON:003:1,2014-09-01T01:42:00Z,26.8015,-97.4706,0.0,6.0,115.0,7.1,'11111222,11111222,11111222' 
TCOON,ioos:station:TCOON:003:1,2014-09-01T01:48:00Z,26.8015,-97.4706,0.0,5.4,114.0,7.0,'11111222,11111222,11111222' 
TCOON,ioos:station:TCOON:003:1,2014-09-01T01:54:00Z,26.8015,-97.4706,0.0,6.2,115.0,7.2,'11111222,11111222,11111222' 
TCOON,ioos:station:TCOON:003:1,2014-09-01T02:00:00Z,26.8015,-97.4706,0.0,5.7,114.0,6.8,'11111222,11111222,11111222' 
TCOON,ioos:station:TCOON:003:1,2014-09-01T02:06:00Z,26.8015,-97.4706,0.0,5.7,116.0,6.6,'11111222,11111222,11111222' 
TCOON,ioos:station:TCOON:003:1,2014-09-01T02:12:00Z,26.8015,-97.4706,0.0,5.5,117.0,6.8,'11111222,11111222,11111222' 
TCOON,ioos:station:TCOON:003:1,2014-09-01T02:18:00Z,26.8015,-97.4706,0.0,5.5,117.0,6.8,'1111122,1111122,1111122' 
TCOON,ioos:station:TCOON:003:1,2014-09-01T02:24:00Z,26.8015,-97.4706,0.0,6.2,125.0,7.2,'11111222,11111222,11111222' 
TCOON,ioos:station:TCOON:003:1,2014-09-01T02:30:00Z,26.8015,-97.4706,0.0,5.7,123.0,6.6,'11111222,11111222,11111222' 
TCOON,ioos:station:TCOON:003:1,2014-09-01T02:36:00Z,26.8015,-97.4706,0.0,5.4,123.0,6.6,'11111222,11111222,11111222' 
TCOON,ioos:station:TCOON:003:1,2014-09-01T02:42:00Z,26.8015,-97.4706,0.0,6.0,123.0,6.8,'11111222,11111222,11111222' 
TCOON,ioos:station:TCOON:003:1,2014-09-01T02:48:00Z,26.8015,-97.4706,0.0,6.1,122.0,7.1,'11111222,11111222,11111222' 
TCOON,ioos:station:TCOON:003:1,2014-09-01T02:54:00Z,26.8015,-97.4706,0.0,6.1,122.0,7.2,'11111222,11111222,11111222' 
TCOON,ioos:station:TCOON:003:1,2014-09-01T03:00:00Z,26.8015,-97.4706,0.0,6.0,121.0,6.7,'11111222,11111222,11111222' 
TCOON,ioos:station:TCOON:003:1,2014-09-01T03:06:00Z,26.8015,-97.4706,0.0,5.9,119.0,7.2,'11111222,11111222,11111222' 
TCOON,ioos:station:TCOON:003:1,2014-09-01T03:12:00Z,26.8015,-97.4706,0.0,5.9,119.0,7.2,'1111122,1111122,1111122' 
TCOON,ioos:station:TCOON:003:1,2014-09-01T03:18:00Z,26.8015,-97.4706,0.0,6.1,120.0,6.9,'11111222,11111222,11111222' 
TCOON,ioos:station:TCOON:003:1,2014-09-01T03:24:00Z,26.8015,-97.4706,0.0,5.6,122.0,7.1,'11111222,11111222,11111222' 
TCOON,ioos:station:TCOON:003:1,2014-09-01T03:30:00Z,26.8015,-97.4706,0.0,5.5,124.0,6.5,'11111222,11111222,11111222' 
TCOON,ioos:station:TCOON:003:1,2014-09-01T03:36:00Z,26.8015,-97.4706,0.0,5.8,123.0,6.4,'11111222,11111222,11111222' 
TCOON,ioos:station:TCOON:003:1,2014-09-01T03:42:00Z,26.8015,-97.4706,0.0,5.3,125.0,6.6,'11111222,11111222,11111222' 
TCOON,ioos:station:TCOON:003:1,2014-09-01T03:48:00Z,26.8015,-97.4706,0.0,6.1,124.0,7.0,'11111222,11111222,11111222' 
TCOON,ioos:station:TCOON:003:1,2014-09-01T03:54:00Z,26.8015,-97.4706,0.0,5.9,125.0,6.9,'11111222,11111222,11111222' 
TCOON,ioos:station:TCOON:003:1,2014-09-01T04:00:00Z,26.8015,-97.4706,0.0,6.3,124.0,7.3,'11111222,11111222,11111222' 
TCOON,ioos:station:TCOON:003:1,2014-09-01T04:06:00Z,26.8015,-97.4706,0.0,6.0,126.0,7.2,'11111222,11111222,11111222' 
TCOON,ioos:station:TCOON:003:1,2014-09-01T04:12:00Z,26.8015,-97.4706,0.0,6.0,126.0,7.2,'1111122,1111122,1111122' 
TCOON,ioos:station:TCOON:003:1,2014-09-01T04:18:00Z,26.8015,-97.4706,0.0,6.7,125.0,7.3,'11111222,11111222,11111222' 
TCOON,ioos:station:TCOON:003:1,2014-09-01T04:24:00Z,26.8015,-97.4706,0.0,6.3,128.0,7.5,'11111222,11111222,11111222' 
TCOON,ioos:station:TCOON:003:1,2014-09-01T04:30:00Z,26.8015,-97.4706,0.0,6.5,128.0,7.6,'11111222,11111222,11111222' 
TCOON,ioos:station:TCOON:003:1,2014-09-01T04:36:00Z,26.8015,-97.4706,0.0,6.5,132.0,7.8,'11111222,11111222,11111222' 
TCOON,ioos:station:TCOON:003:1,2014-09-01T04:42:00Z,26.8015,-97.4706,0.0,6.1,131.0,7.2,'11111222,11111222,11111222' 
TCOON,ioos:station:TCOON:003:1,2014-09-01T04:48:00Z,26.8015,-97.4706,0.0,6.1,131.0,7.1,'11111222,11111222,11111222' 
TCOON,ioos:station:TCOON:003:1,2014-09-01T04:54:00Z,26.8015,-97.4706,0.0,6.1,131.0,7.1,'11111222,11111222,11111222' 
TCOON,ioos:station:TCOON:003:1,2014-09-01T05:00:00Z,26.8015,-97.4706,0.0,5.8,132.0,6.8,'11111222,11111222,11111222' 
TCOON,ioos:station:TCOON:003:1,2014-09-01T05:06:00Z,26.8015,-97.4706,0.0,6.0,131.0,7.1,'11111222,11111222,11111222' 
TCOON,ioos:station:TCOON:003:1,2014-09-01T05:12:00Z,26.8015,-97.4706,0.0,6.0,131.0,7.1,'1111122,1111122,1111122' 
TCOON,ioos:station:TCOON:003:1,2014-09-01T05:18:00Z,26.8015,-97.4706,0.0,6.0,132.0,7.0,'11111222,11111222,11111222' 
TCOON,ioos:station:TCOON:003:1,2014-09-01T05:24:00Z,26.8015,-97.4706,0.0,5.9,136.0,7.1,'11111222,11111222,11111222' 
TCOON,ioos:station:TCOON:003:1,2014-09-01T05:30:00Z,26.8015,-97.4706,0.0,6.3,135.0,7.1,'11111222,11111222,11111222' 
TCOON,ioos:station:TCOON:003:1,2014-09-01T05:36:00Z,26.8015,-97.4706,0.0,6.1,134.0,6.9,'11111222,11111222,11111222' 
TCOON,ioos:station:TCOON:003:1,2014-09-01T05:42:00Z,26.8015,-97.4706,0.0,5.4,135.0,6.5,'11111222,11111222,11111222' 
TCOON,ioos:station:TCOON:003:1,2014-09-01T05:48:00Z,26.8015,-97.4706,0.0,4.9,135.0,5.5,'11111222,11111222,11111222' 
TCOON,ioos:station:TCOON:003:1,2014-09-01T05:54:00Z,26.8015,-97.4706,0.0,5.0,135.0,5.9,'11111222,11111222,11111222' 
TCOON,ioos:station:TCOON:003:1,2014-09-01T06:00:00Z,26.8015,-97.4706,0.0,5.0,136.0,5.9,'11111222,11111222,11111222' 
TCOON,ioos:station:TCOON:003:1,2014-09-01T06:06:00Z,26.8015,-97.4706,0.0,4.7,138.0,5.7,'11111222,11111222,11111222' 
TCOON,ioos:station:TCOON:003:1,2014-09-01T06:12:00Z,26.8015,-97.4706,0.0,5.2,141.0,5.7,'11111222,11111222,11111222' 
TCOON,ioos:station:TCOON:003:1,2014-09-01T06:18:00Z,26.8015,-97.4706,0.0,5.2,141.0,5.7,'1111122,1111122,1111122' 
TCOON,ioos:station:TCOON:003:1,2014-09-01T06:24:00Z,26.8015,-97.4706,0.0,5.0,137.0,5.7,'11111222,11111222,11111222' 
TCOON,ioos:station:TCOON:003:1,2014-09-01T06:30:00Z,26.8015,-97.4706,0.0,4.8,139.0,5.8,'11111222,11111222,11111222' 
TCOON,ioos:station:TCOON:003:1,2014-09-01T06:36:00Z,26.8015,-97.4706,0.0,4.4,134.0,5.2,'11111222,11111222,11111222' 
TCOON,ioos:station:TCOON:003:1,2014-09-01T06:42:00Z,26.8015,-97.4706,0.0,4.2,139.0,5.1,'11111222,11111222,11111222' 
TCOON,ioos:station:TCOON:003:1,2014-09-01T06:48:00Z,26.8015,-97.4706,0.0,4.5,139.0,5.0,'11111222,11111222,11111222' 
TCOON,ioos:station:TCOON:003:1,2014-09-01T06:54:00Z,26.8015,-97.4706,0.0,5.1,141.0,5.8,'11111222,11111222,11111222' 
TCOON,ioos:station:TCOON:003:1,2014-09-01T07:00:00Z,26.8015,-97.4706,0.0,4.3,143.0,5.8,'11111222,11111222,11111222' 
TCOON,ioos:station:TCOON:003:1,2014-09-01T07:06:00Z,26.8015,-97.4706,0.0,4.6,141.0,5.5,'11111222,11111222,11111222' 
TCOON,ioos:station:TCOON:003:1,2014-09-01T07:12:00Z,26.8015,-97.4706,0.0,4.6,141.0,5.5,'1111122,1111122,1111122' 
TCOON,ioos:station:TCOON:003:1,2014-09-01T07:18:00Z,26.8015,-97.4706,0.0,4.0,145.0,5.3,'11111222,11111222,11111222' 
TCOON,ioos:station:TCOON:003:1,2014-09-01T07:24:00Z,26.8015,-97.4706,0.0,4.4,145.0,5.2,'11111222,11111222,11111222' 
TCOON,ioos:station:TCOON:003:1,2014-09-01T07:30:00Z,26.8015,-97.4706,0.0,4.0,144.0,5.0,'11111222,11111222,11111222' 
TCOON,ioos:station:TCOON:003:1,2014-09-01T07:36:00Z,26.8015,-97.4706,0.0,4.5,146.0,5.2,'11111222,11111222,11111222' 
TCOON,ioos:station:TCOON:003:1,2014-09-01T07:42:00Z,26.8015,-97.4706,0.0,4.4,146.0,5.4,'11111222,11111222,11111222' 
TCOON,ioos:station:TCOON:003:1,2014-09-01T07:48:00Z,26.8015,-97.4706,0.0,4.8,145.0,5.5,'11111222,11111222,11111222' 
TCOON,ioos:station:TCOON:003:1,2014-09-01T07:54:00Z,26.8015,-97.4706,0.0,5.1,146.0,6.0,'11111222,11111222,11111222' 
TCOON,ioos:station:TCOON:003:1,2014-09-01T08:00:00Z,26.8015,-97.4706,0.0,4.3,146.0,5.5,'11111222,11111222,11111222' 
TCOON,ioos:station:TCOON:003:1,2014-09-01T08:06:00Z,26.8015,-97.4706,0.0,4.3,146.0,5.5,'11111222,11111222,11111222' 
TCOON,ioos:station:TCOON:003:1,2014-09-01T08:12:00Z,26.8015,-97.4706,0.0,4.6,150.0,5.4,'11111222,11111222,11111222' 
TCOON,ioos:station:TCOON:003:1,2014-09-01T08:18:00Z,26.8015,-97.4706,0.0,4.6,150.0,5.4,'1111122,1111122,1111122' 
TCOON,ioos:station:TCOON:003:1,2014-09-01T08:24:00Z,26.8015,-97.4706,0.0,5.2,146.0,6.2,'11111222,11111222,11111222' 
TCOON,ioos:station:TCOON:003:1,2014-09-01T08:30:00Z,26.8015,-97.4706,0.0,5.3,146.0,5.9,'11111222,11111222,11111222' 
TCOON,ioos:station:TCOON:003:1,2014-09-01T08:36:00Z,26.8015,-97.4706,0.0,5.1,145.0,6.1,'11111222,11111222,11111222' 
TCOON,ioos:station:TCOON:003:1,2014-09-01T08:42:00Z,26.8015,-97.4706,0.0,5.2,143.0,5.9,'11111222,11111222,11111222' 
TCOON,ioos:station:TCOON:003:1,2014-09-01T08:48:00Z,26.8015,-97.4706,0.0,5.4,143.0,6.3,'11111222,11111222,11111222' 
TCOON,ioos:station:TCOON:003:1,2014-09-01T08:54:00Z,26.8015,-97.4706,0.0,4.6,139.0,5.9,'11111222,11111222,11111222' 
TCOON,ioos:station:TCOON:003:1,2014-09-01T09:00:00Z,26.8015,-97.4706,0.0,4.8,141.0,5.7,'11111222,11111222,11111222' 
TCOON,ioos:station:TCOON:003:1,2014-09-01T09:06:00Z,26.8015,-97.4706,0.0,5.0,143.0,6.1,'11111222,11111222,11111222' 
TCOON,ioos:station:TCOON:003:1,2014-09-01T09:12:00Z,26.8015,-97.4706,0.0,5.0,143.0,6.1,'1111122,1111122,1111122' 
TCOON,ioos:station:TCOON:003:1,2014-09-01T09:18:00Z,26.8015,-97.4706,0.0,4.8,141.0,5.4,'11111222,11111222,11111222' 
TCOON,ioos:station:TCOON:003:1,2014-09-01T09:24:00Z,26.8015,-97.4706,0.0,4.7,144.0,5.5,'11111222,11111222,11111222' 
TCOON,ioos:station:TCOON:003:1,2014-09-01T09:30:00Z,26.8015,-97.4706,0.0,4.8,144.0,5.5,'11111222,11111222,11111222' 
TCOON,ioos:station:TCOON:003:1,2014-09-01T09:36:00Z,26.8015,-97.4706,0.0,4.7,143.0,6.0,'11111222,11111222,11111222' 
TCOON,ioos:station:TCOON:003:1,2014-09-01T09:42:00Z,26.8015,-97.4706,0.0,4.9,144.0,6.0,'11111222,11111222,11111222' 
TCOON,ioos:station:TCOON:003:1,2014-09-01T09:48:00Z,26.8015,-97.4706,0.0,5.3,142.0,6.3,'11111222,11111222,11111222' 
TCOON,ioos:station:TCOON:003:1,2014-09-01T09:54:00Z,26.8015,-97.4706,0.0,5.2,139.0,5.9,'11111222,11111222,11111222' 
TCOON,ioos:station:TCOON:003:1,2014-09-01T10:00:00Z,26.8015,-97.4706,0.0,5.5,142.0,6.1,'11111222,11111222,11111222' 
TCOON,ioos:station:TCOON:003:1,2014-09-01T10:06:00Z,26.8015,-97.4706,0.0,5.2,143.0,6.1,'11111222,11111222,11111222' 
TCOON,ioos:station:TCOON:003:1,2014-09-01T10:12:00Z,26.8015,-97.4706,0.0,5.2,143.0,6.1,'1111122,1111122,1111122' 
TCOON,ioos:station:TCOON:003:1,2014-09-01T10:18:00Z,26.8015,-97.4706,0.0,4.7,140.0,5.4,'11111222,11111222,11111222' 
TCOON,ioos:station:TCOON:003:1,2014-09-01T10:24:00Z,26.8015,-97.4706,0.0,5.0,142.0,5.9,'11111222,11111222,11111222' 
TCOON,ioos:station:TCOON:003:1,2014-09-01T10:30:00Z,26.8015,-97.4706,0.0,4.6,140.0,5.2,'11111222,11111222,11111222' 
TCOON,ioos:station:TCOON:003:1,2014-09-01T10:36:00Z,26.8015,-97.4706,0.0,4.6,140.0,5.0,'11111222,11111222,11111222' 
TCOON,ioos:station:TCOON:003:1,2014-09-01T10:42:00Z,26.8015,-97.4706,0.0,4.4,140.0,5.0,'11111222,11111222,11111222' 
TCOON,ioos:station:TCOON:003:1,2014-09-01T10:48:00Z,26.8015,-97.4706,0.0,4.3,140.0,5.1,'11111222,11111222,11111222' 
TCOON,ioos:station:TCOON:003:1,2014-09-01T10:54:00Z,26.8015,-97.4706,0.0,4.0,138.0,4.8,'11111222,11111222,11111222' 
TCOON,ioos:station:TCOON:003:1,2014-09-01T11:00:00Z,26.8015,-97.4706,0.0,3.6,139.0,4.6,'11111222,11111222,11111222' 
TCOON,ioos:station:TCOON:003:1,2014-09-01T11:06:00Z,26.8015,-97.4706,0.0,3.6,141.0,4.5,'11111222,11111222,11111222' 
TCOON,ioos:station:TCOON:003:1,2014-09-01T11:12:00Z,26.8015,-97.4706,0.0,3.6,141.0,4.5,'1111122,1111122,1111122' 
TCOON,ioos:station:TCOON:003:1,2014-09-01T11:18:00Z,26.8015,-97.4706,0.0,3.7,135.0,4.0,'11111222,11111222,11111222' 
TCOON,ioos:station:TCOON:003:1,2014-09-01T11:24:00Z,26.8015,-97.4706,0.0,3.5,139.0,4.1,'11111222,11111222,11111222' 
TCOON,ioos:station:TCOON:003:1,2014-09-01T11:30:00Z,26.8015,-97.4706,0.0,3.7,140.0,4.5,'11111222,11111222,11111222' 
TCOON,ioos:station:TCOON:003:1,2014-09-01T11:36:00Z,26.8015,-97.4706,0.0,4.1,139.0,4.9,'11111222,11111222,11111222' 
TCOON,ioos:station:TCOON:003:1,2014-09-01T11:42:00Z,26.8015,-97.4706,0.0,3.8,139.0,4.6,'11111222,11111222,11111222' 
TCOON,ioos:station:TCOON:003:1,2014-09-01T11:48:00Z,26.8015,-97.4706,0.0,3.6,137.0,4.6,'11111222,11111222,11111222' 
TCOON,ioos:station:TCOON:003:1,2014-09-01T11:54:00Z,26.8015,-97.4706,0.0,3.4,140.0,4.2,'11111222,11111222,11111222' 
TCOON,ioos:station:TCOON:003:1,2014-09-01T12:00:00Z,26.8015,-97.4706,0.0,3.7,140.0,4.1,'11111222,11111222,11111222' 
TCOON,ioos:station:TCOON:003:1,2014-09-01T12:06:00Z,26.8015,-97.4706,0.0,3.1,139.0,4.2,'11111222,11111222,11111222' 
TCOON,ioos:station:TCOON:003:1,2014-09-01T12:12:00Z,26.8015,-97.4706,0.0,3.1,139.0,4.2,'1111122,1111122,1111122' 
TCOON,ioos:station:TCOON:003:1,2014-09-01T12:18:00Z,26.8015,-97.4706,0.0,2.8,136.0,3.7,'11111222,11111222,11111222' 
TCOON,ioos:station:TCOON:003:1,2014-09-01T12:24:00Z,26.8015,-97.4706,0.0,2.9,131.0,3.3,'11111222,11111222,11111222' 
TCOON,ioos:station:TCOON:003:1,2014-09-01T12:30:00Z,26.8015,-97.4706,0.0,3.1,129.0,3.7,'11111222,11111222,11111222' 
TCOON,ioos:station:TCOON:003:1,2014-09-01T12:36:00Z,26.8015,-97.4706,0.0,3.4,128.0,4.0,'11111222,11111222,11111222' 
TCOON,ioos:station:TCOON:003:1,2014-09-01T12:42:00Z,26.8015,-97.4706,0.0,3.4,124.0,3.9,'11111222,11111222,11111222' 
TCOON,ioos:station:TCOON:003:1,2014-09-01T12:48:00Z,26.8015,-97.4706,0.0,3.2,125.0,3.7,'11111222,11111222,11111222' 
TCOON,ioos:station:TCOON:003:1,2014-09-01T12:54:00Z,26.8015,-97.4706,0.0,3.1,121.0,3.7,'11111222,11111222,11111222' 
TCOON,ioos:station:TCOON:003:1,2014-09-01T13:00:00Z,26.8015,-97.4706,0.0,3.4,122.0,3.9,'11111222,11111222,11111222' 
TCOON,ioos:station:TCOON:003:1,2014-09-01T13:06:00Z,26.8015,-97.4706,0.0,3.2,120.0,3.9,'11111222,11111222,11111222' 
TCOON,ioos:station:TCOON:003:1,2014-09-01T13:12:00Z,26.8015,-97.4706,0.0,3.2,120.0,3.9,'1111122,1111122,1111122' 
TCOON,ioos:station:TCOON:003:1,2014-09-01T13:18:00Z,26.8015,-97.4706,0.0,3.4,128.0,3.9,'11111222,11111222,11111222' 
TCOON,ioos:station:TCOON:003:1,2014-09-01T13:24:00Z,26.8015,-97.4706,0.0,3.1,128.0,3.8,'11111222,11111222,11111222' 
TCOON,ioos:station:TCOON:003:1,2014-09-01T13:30:00Z,26.8015,-97.4706,0.0,3.9,123.0,4.4,'11111222,11111222,11111222' 
TCOON,ioos:station:TCOON:003:1,2014-09-01T13:36:00Z,26.8015,-97.4706,0.0,3.6,124.0,4.2,'11111222,11111222,11111222' 
TCOON,ioos:station:TCOON:003:1,2014-09-01T13:42:00Z,26.8015,-97.4706,0.0,3.7,126.0,4.3,'11111222,11111222,11111222' 
TCOON,ioos:station:TCOON:003:1,2014-09-01T13:48:00Z,26.8015,-97.4706,0.0,3.3,124.0,4.4,'11111222,11111222,11111222' 
TCOON,ioos:station:TCOON:003:1,2014-09-01T13:54:00Z,26.8015,-97.4706,0.0,3.3,123.0,4.0,'11111222,11111222,11111222' 
TCOON,ioos:station:TCOON:003:1,2014-09-01T14:00:00Z,26.8015,-97.4706,0.0,3.5,125.0,4.3,'11111222,11111222,11111222' 
TCOON,ioos:station:TCOON:003:1,2014-09-01T14:06:00Z,26.8015,-97.4706,0.0,3.6,123.0,4.2,'11111222,11111222,11111222' 
TCOON,ioos:station:TCOON:003:1,2014-09-01T14:12:00Z,26.8015,-97.4706,0.0,4.0,135.0,4.5,'11111222,11111222,11111222' 
TCOON,ioos:station:TCOON:003:1,2014-09-01T14:18:00Z,26.8015,-97.4706,0.0,4.0,135.0,4.5,'1111122,1111122,1111122' 
TCOON,ioos:station:TCOON:003:1,2014-09-01T14:24:00Z,26.8015,-97.4706,0.0,4.9,132.0,5.6,'11111222,11111222,11111222' 
TCOON,ioos:station:TCOON:003:1,2014-09-01T14:30:00Z,26.8015,-97.4706,0.0,4.9,132.0,6.2,'11111222,11111222,11111222' 
TCOON,ioos:station:TCOON:003:1,2014-09-01T14:36:00Z,26.8015,-97.4706,0.0,4.6,134.0,5.8,'11111222,11111222,11111222' 
TCOON,ioos:station:TCOON:003:1,2014-09-01T14:42:00Z,26.8015,-97.4706,0.0,4.8,134.0,5.7,'11111222,11111222,11111222' 
TCOON,ioos:station:TCOON:003:1,2014-09-01T14:48:00Z,26.8015,-97.4706,0.0,5.2,136.0,6.1,'11111222,11111222,11111222' 
TCOON,ioos:station:TCOON:003:1,2014-09-01T14:54:00Z,26.8015,-97.4706,0.0,4.9,137.0,5.9,'11111222,11111222,11111222' 
TCOON,ioos:station:TCOON:003:1,2014-09-01T15:00:00Z,26.8015,-97.4706,0.0,5.1,136.0,5.8,'11111222,11111222,11111222' 
TCOON,ioos:station:TCOON:003:1,2014-09-01T15:06:00Z,26.8015,-97.4706,0.0,5.1,136.0,6.1,'11111222,11111222,11111222' 
TCOON,ioos:station:TCOON:003:1,2014-09-01T15:12:00Z,26.8015,-97.4706,0.0,5.1,136.0,6.1,'1111122,1111122,1111122' 
TCOON,ioos:station:TCOON:003:1,2014-09-01T15:18:00Z,26.8015,-97.4706,0.0,5.1,136.0,6.0,'11111222,11111222,11111222' 
TCOON,ioos:station:TCOON:003:1,2014-09-01T15:24:00Z,26.8015,-97.4706,0.0,5.4,137.0,6.3,'11111222,11111222,11111222' 
TCOON,ioos:station:TCOON:003:1,2014-09-01T15:30:00Z,26.8015,-97.4706,0.0,5.2,133.0,6.2,'11111222,11111222,11111222' 
TCOON,ioos:station:TCOON:003:1,2014-09-01T15:36:00Z,26.8015,-97.4706,0.0,5.0,134.0,6.1,'11111222,11111222,11111222' 
TCOON,ioos:station:TCOON:003:1,2014-09-01T15:42:00Z,26.8015,-97.4706,0.0,5.3,136.0,6.2,'11111222,11111222,11111222' 
TCOON,ioos:station:TCOON:003:1,2014-09-01T15:48:00Z,26.8015,-97.4706,0.0,5.6,131.0,6.2,'11111222,11111222,11111222' 
TCOON,ioos:station:TCOON:003:1,2014-09-01T15:54:00Z,26.8015,-97.4706,0.0,5.3,131.0,6.3,'11111222,11111222,11111222' 
TCOON,ioos:station:TCOON:003:1,2014-09-01T16:00:00Z,26.8015,-97.4706,0.0,4.9,138.0,6.4,'11111222,11111222,11111222' 
TCOON,ioos:station:TCOON:003:1,2014-09-01T16:06:00Z,26.8015,-97.4706,0.0,5.2,136.0,5.9,'11111222,11111222,11111222' 
TCOON,ioos:station:TCOON:003:1,2014-09-01T16:12:00Z,26.8015,-97.4706,0.0,5.7,136.0,6.4,'1111122,1111122,1111122' 
TCOON,ioos:station:TCOON:003:1,2014-09-01T16:18:00Z,26.8015,-97.4706,0.0,5.8,129.0,6.4,'11111222,11111222,11111222' 
TCOON,ioos:station:TCOON:003:1,2014-09-01T16:24:00Z,26.8015,-97.4706,0.0,5.7,124.0,6.8,'11111222,11111222,11111222' 
TCOON,ioos:station:TCOON:003:1,2014-09-01T16:30:00Z,26.8015,-97.4706,0.0,5.5,136.0,6.5,'11111222,11111222,11111222' 
TCOON,ioos:station:TCOON:003:1,2014-09-01T16:36:00Z,26.8015,-97.4706,0.0,5.8,127.0,6.6,'11111222,11111222,11111222' 
TCOON,ioos:station:TCOON:003:1,2014-09-01T16:42:00Z,26.8015,-97.4706,0.0,5.8,127.0,6.5,'11111222,11111222,11111222' 
TCOON,ioos:station:TCOON:003:1,2014-09-01T16:48:00Z,26.8015,-97.4706,0.0,6.3,125.0,7.2,'11111222,11111222,11111222' 
TCOON,ioos:station:TCOON:003:1,2014-09-01T16:54:00Z,26.8015,-97.4706,0.0,6.0,131.0,7.2,'11111222,11111222,11111222' 
TCOON,ioos:station:TCOON:003:1,2014-09-01T17:00:00Z,26.8015,-97.4706,0.0,6.3,128.0,7.4,'11111222,11111222,11111222' 
TCOON,ioos:station:TCOON:003:1,2014-09-01T17:06:00Z,26.8015,-97.4706,0.0,6.5,126.0,7.5,'11111222,11111222,11111222' 
TCOON,ioos:station:TCOON:003:1,2014-09-01T17:12:00Z,26.8015,-97.4706,0.0,6.5,126.0,7.5,'1111122,1111122,1111122' 
TCOON,ioos:station:TCOON:003:1,2014-09-01T17:18:00Z,26.8015,-97.4706,0.0,6.8,122.0,8.3,'11111222,11111222,11111222' 
TCOON,ioos:station:TCOON:003:1,2014-09-01T17:24:00Z,26.8015,-97.4706,0.0,7.0,128.0,7.8,'11111222,11111222,11111222' 
TCOON,ioos:station:TCOON:003:1,2014-09-01T17:30:00Z,26.8015,-97.4706,0.0,6.5,127.0,7.5,'11111222,11111222,11111222' 
TCOON,ioos:station:TCOON:003:1,2014-09-01T17:36:00Z,26.8015,-97.4706,0.0,6.5,130.0,7.4,'11111222,11111222,11111222' 
TCOON,ioos:station:TCOON:003:1,2014-09-01T17:42:00Z,26.8015,-97.4706,0.0,6.4,131.0,7.5,'11111222,11111222,11111222' 
TCOON,ioos:station:TCOON:003:1,2014-09-01T17:48:00Z,26.8015,-97.4706,0.0,6.0,127.0,7.3,'11111222,11111222,11111222' 
TCOON,ioos:station:TCOON:003:1,2014-09-01T17:54:00Z,26.8015,-97.4706,0.0,6.7,124.0,7.8,'11111222,11111222,11111222' 
TCOON,ioos:station:TCOON:003:1,2014-09-01T18:00:00Z,26.8015,-97.4706,0.0,6.6,120.0,7.8,'11111222,11111222,11111222' 
TCOON,ioos:station:TCOON:003:1,2014-09-01T18:06:00Z,26.8015,-97.4706,0.0,6.7,128.0,7.9,'11111222,11111222,11111222' 
TCOON,ioos:station:TCOON:003:1,2014-09-01T18:12:00Z,26.8015,-97.4706,0.0,6.7,128.0,7.9,'1111122,1111122,1111122' 
TCOON,ioos:station:TCOON:003:1,2014-09-01T18:18:00Z,26.8015,-97.4706,0.0,7.2,121.0,8.2,'11111222,11111222,11111222' 
TCOON,ioos:station:TCOON:003:1,2014-09-01T18:24:00Z,26.8015,-97.4706,0.0,6.5,122.0,9.3,'11111222,11111222,11111222' 
TCOON,ioos:station:TCOON:003:1,2014-09-01T18:30:00Z,26.8015,-97.4706,0.0,7.2,128.0,9.2,'11111222,11111222,11111222' 
TCOON,ioos:station:TCOON:003:1,2014-09-01T18:36:00Z,26.8015,-97.4706,0.0,7.1,125.0,8.6,'11111222,11111222,11111222' 
TCOON,ioos:station:TCOON:003:1,2014-09-01T18:42:00Z,26.8015,-97.4706,0.0,8.3,126.0,9.4,'11111222,11111222,11111222' 
TCOON,ioos:station:TCOON:003:1,2014-09-01T18:48:00Z,26.8015,-97.4706,0.0,7.1,122.0,9.4,'11111222,11111222,11111222' 
TCOON,ioos:station:TCOON:003:1,2014-09-01T18:54:00Z,26.8015,-97.4706,0.0,7.4,127.0,9.0,'11111222,11111222,11111222' 
TCOON,ioos:station:TCOON:003:1,2014-09-01T19:00:00Z,26.8015,-97.4706,0.0,7.4,124.0,8.5,'11111222,11111222,11111222' 
TCOON,ioos:station:TCOON:003:1,2014-09-01T19:06:00Z,26.8015,-97.4706,0.0,8.3,125.0,9.5,'11111222,11111222,11111222' 
TCOON,ioos:station:TCOON:003:1,2014-09-01T19:12:00Z,26.8015,-97.4706,0.0,8.2,119.0,10.2,'11111222,11111222,11111222' 
TCOON,ioos:station:TCOON:003:1,2014-09-01T19:18:00Z,26.8015,-97.4706,0.0,8.2,119.0,10.2,'1111122,1111122,1111122' 
TCOON,ioos:station:TCOON:003:1,2014-09-01T19:24:00Z,26.8015,-97.4706,0.0,7.8,127.0,9.0,'11111222,11111222,11111222' 
TCOON,ioos:station:TCOON:003:1,2014-09-01T19:30:00Z,26.8015,-97.4706,0.0,8.3,119.0,9.4,'11111222,11111222,11111222' 
TCOON,ioos:station:TCOON:003:1,2014-09-01T19:36:00Z,26.8015,-97.4706,0.0,7.0,122.0,9.2,'11111222,11111222,11111222' 
TCOON,ioos:station:TCOON:003:1,2014-09-01T19:42:00Z,26.8015,-97.4706,0.0,7.8,128.0,9.2,'11111222,11111222,11111222' 
TCOON,ioos:station:TCOON:003:1,2014-09-01T19:48:00Z,26.8015,-97.4706,0.0,7.6,116.0,8.5,'11111222,11111222,11111222' 
TCOON,ioos:station:TCOON:003:1,2014-09-01T19:54:00Z,26.8015,-97.4706,0.0,7.3,122.0,9.2,'11111222,11111222,11111222' 
TCOON,ioos:station:TCOON:003:1,2014-09-01T20:00:00Z,26.8015,-97.4706,0.0,7.6,129.0,8.8,'11111222,11111222,11111222' 
TCOON,ioos:station:TCOON:003:1,2014-09-01T20:06:00Z,26.8015,-97.4706,0.0,8.0,120.0,9.0,'11111222,11111222,11111222' 
TCOON,ioos:station:TCOON:003:1,2014-09-01T20:12:00Z,26.8015,-97.4706,0.0,8.0,120.0,9.0,'1111122,1111122,1111122' 
TCOON,ioos:station:TCOON:003:1,2014-09-01T20:18:00Z,26.8015,-97.4706,0.0,7.8,122.0,9.3,'11111222,11111222,11111222' 